Location: �chenoz-la-M�line
(47.6009°N, 6.1354°E)
Time: 01:07:01
(UTC+00:00)

Daily predictions for brighter satellites

Satellite Brightness Start Highest point End
(mag) Time Altitude Azimuth Time Altitude Azimuth Time Altitude Azimuth
Cosmos 2278 Rocket 4.3 03:36:40 17° SE 03:36:40 17° SE 03:37:51 10° SE
Cosmos 2219 Rocket 4.0 03:41:53 22° NNE 03:41:53 22° NNE 03:43:50 10° NNE
Cosmos 2237 Rocket 3.1 03:43:07 45° E 03:43:07 45° E 03:47:49 10° NE
BREEZE-M DEB (TANK) 4.0 03:55:50 73° W 03:56:42 84° SSW 04:01:15 10° ESE
Cosmos 2333 Rocket 3.8 04:04:35 24° N 04:04:35 24° N 04:06:57 10° NNE
Lacrosse 4 Rocket 3.2 04:04:26 31° E 04:04:26 31° E 04:07:48 10° NE
FENGYUN 3A 4.2 04:00:43 10° NNE 04:04:53 53° NNE 04:04:53 53° NNE
Cosmos 1891 Rocket 4.3 04:10:02 82° SE 04:10:17 84° E 04:16:22 10° N
Cosmos 2360 Rocket 4.3 04:15:24 14° N 04:15:24 14° N 04:16:36 10° N
Cosmos 1464 Rocket 3.9 04:13:47 52° S 04:15:25 85° E 04:21:38 10° N
Gbstr 26 Del rocket 4.5 04:13:50 56° SSW 04:15:30 72° SSE 04:23:35 10° ENE
Cosmos 841 Rocket 3.8 04:16:53 60° NE 04:16:53 60° NE 04:21:09 10° NNE
Cosmos 1980 3.7 04:17:06 78° NNE 04:17:06 78° NNE 04:22:23 10° NNE
Meteor 1-21 Rocket 4.3 04:17:53 42° N 04:19:58 82° ENE 04:25:50 10° SSE
Meteor 2-13 Rocket 4.5 04:14:40 10° N 04:20:52 78° E 04:27:01 10° SSE
COSMOS 2428 3.9 04:25:09 29° N 04:25:09 29° N 04:28:22 10° NNE
Cosmos 1072 Rocket 4.3 04:22:08 64° SSW 04:23:07 80° W 04:29:31 10° N
SKYMED 2 4.2 04:19:28 10° SSE 04:23:41 53° ENE 04:23:56 53° ENE
Atlas Centaur 2 4.3 04:26:50 18° SSW 04:28:19 19° S 04:33:34 10° SE
ATLAS CENTAUR R/B 2.5 04:31:45 37° ENE 04:31:45 37° ENE 04:34:15 10° NE
METEOR-M 4.0 04:27:55 10° NNE 04:33:19 85° WNW 04:34:34 54° SSW
Cosmos 2150 Rocket 4.4 04:33:50 28° N 04:36:40 65° ENE 04:42:03 10° SSE
Cosmos 2084 Rocket 3.6 04:37:18 72° ESE 04:37:18 72° ESE 04:41:22 10° SE
Cosmos 1092 Rocket 4.4 04:31:50 10° N 04:37:58 63° ENE 04:44:06 10° SSE
Cosmos 372 Rocket 4.0 04:40:33 60° SW 04:40:33 60° SW 04:45:06 10° S
ALOS 3.9 04:36:06 10° N 04:37:53 23° N 04:37:53 23° N
USA 215 3.7 04:35:36 10° NE 04:41:45 46° NNW 04:43:15 39° NW
Cosmos 1602 Rocket 3.7 04:40:25 34° N 04:42:19 73° E 04:46:48 10° SSE
ADEOS 3.4 04:38:27 10° NNE 04:43:42 85° WNW 04:47:41 18° SSW
GEOS 3 Rocket 4.4 04:38:46 10° ESE 04:43:56 50° NE 04:46:52 25° NNW
USA 307 3.1 04:44:43 63° SSE 04:44:53 64° SE 04:49:05 10° ENE
NOSS 0 Rocket 4.0 04:45:40 52° WNW 04:46:11 53° NW 04:52:14 10° NNE
Cosmos 1328 3.9 04:46:58 58° NNE 04:47:34 69° E 04:51:27 10° SSE
Nadezhda 4 Rocket 3.8 04:42:23 10° NNW 04:48:29 70° W 04:54:33 10° S
BREEZE-M (TANK) 4.5 04:52:16 12° SE 04:52:16 12° SE 04:52:26 10° SE
USA 305 2.9 04:50:49 67° S 04:51:10 73° SE 04:55:24 10° ENE
Cosmos 2098 Rocket 4.4 04:48:09 10° N 04:53:46 48° ENE 04:58:11 10° SSE
USA 308 3.0 04:53:18 62° SSW 04:53:52 73° SSE 04:58:08 10° ENE
Cosmos 1400 Rocket 2.7 04:53:19 49° SSW 04:54:23 89° W 04:58:33 10° N
SL-4 R/B 1.7 04:55:30 83° SE 04:55:30 83° SE 04:59:28 10° ENE
Cosmos 1943 Rocket 2.7 04:51:10 16° NNW 04:55:43 59° ENE 05:01:18 10° SE
Cosmos 2034 Rocket 3.9 04:50:42 10° SSW 04:57:02 69° W 05:03:23 10° N
Meteor 1-16 Rocket 4.2 04:52:05 10° SSW 04:58:00 76° WNW 05:03:58 10° N
Cosmos 1570 Rocket 4.0 04:57:36 50° WSW 04:58:30 57° WNW 05:03:41 10° NNE
Cosmos 540 Rocket 3.8 05:01:40 41° NW 05:01:40 41° NW 05:06:13 10° N
CZ-2C R/B 4.2 04:57:08 10° SE 05:01:51 34° ENE 05:06:41 10° N
SJ-12 3.8 04:57:49 10° N 05:01:59 74° WNW 05:04:12 26° SSW
Cosmos 2298 Rocket 3.9 05:00:29 27° NNW 05:03:24 74° WSW 05:08:42 10° SSE
USA 306 2.8 05:02:36 57° SW 05:03:25 85° SSE 05:07:41 10° ENE
NOSS 3-2 (A) 3.4 05:00:28 16° SSW 05:05:05 80° SE 05:11:38 10° NE
Cosmos 1814 Rocket 4.0 05:03:50 42° WSW 05:05:10 55° WNW 05:10:14 10° NNE
Cosmos 2369 Rocket 3.2 05:00:41 10° NNW 05:06:02 44° NE 05:11:21 10° SE
Envisat 4.0 05:01:13 10° NNE 05:06:08 48° E 05:11:02 10° S
Cosmos 1125 Rocket 3.5 05:01:52 16° NNW 05:06:12 83° ENE 05:11:31 10° SSE
Cosmos 1634 Rocket 4.2 05:01:13 10° S 05:07:20 70° E 05:13:30 10° NNE
CZ-4B R/B 2.5 05:07:24 10° NNE 05:11:04 89° WNW 05:14:51 10° SSW
COSMO-SKYMED 1 2.7 05:07:33 10° S 05:11:46 50° W 05:12:33 44° WNW
CZ-4B R/B 4.3 05:08:33 10° N 05:12:51 46° WNW 05:13:34 42° W
PSLV R/B 3.8 05:09:40 10° SSE 05:13:49 86° WSW 05:17:58 10° NNW
Cosmos 2278 Rocket 4.0 05:18:36 14° SW 05:18:36 14° SW 05:19:37 10° SW
Cosmos 2228 3.6 05:13:22 10° S 05:17:31 57° E 05:21:41 10° NNE
SL-16 R/B 2.1 05:12:35 10° SSW 05:18:15 88° WNW 05:23:58 10° NNE
NOSS 3-2 (C) 3.8 05:13:13 10° SSW 05:18:46 62° ESE 05:25:09 10° NE
CZ-2C R/B 3.7 05:19:17 11° SSW 05:20:26 12° SSW 05:22:09 10° S
ERBS 4.4 05:18:54 10° S 05:21:42 26° SE 05:24:31 10° ENE
Cosmos 972 Rocket 4.2 05:16:27 10° SSW 05:22:42 78° WNW 05:28:18 10° NNE
Cosmos 1953 Rocket 4.3 05:18:54 10° N 05:23:09 52° ENE 05:27:24 10° SSE
Cosmos 2219 Rocket 3.8 05:23:36 16° NW 05:23:36 16° NW 05:26:44 10° N
Cosmos 2026 Rocket 4.0 05:17:52 10° N 05:24:14 79° W 05:30:36 10° S
ERS-2 2.3 05:20:56 10° S 05:24:27 47° W 05:25:10 40° WNW
ATLAS 5 CENTAUR R/B 3.6 05:25:47 16° SW 05:25:47 16° SW 05:28:16 10° S
CENTAUR R/B 2.7 05:20:07 10° SSW 05:26:00 74° SE 05:33:02 10° NE
Cosmos 2208 Rocket 4.4 05:23:25 22° WSW 05:26:33 43° WNW 05:31:42 10° NNE
Cosmos 2237 Rocket 2.9 05:24:59 29° W 05:26:38 34° NW 05:31:48 10° NNE
H-2A R/B 2.5 05:24:20 10° N 05:28:03 73° WNW 05:31:48 10° SSW
FALCON 9 DEB 3.8 05:30:00 19° SSW 05:31:55 46° SE 05:34:58 10° ENE
Meteor PRIRODA 3.7 05:29:10 10° N 05:32:42 51° WNW 05:36:14 10° SSW
Cosmos 1606 Rocket 3.7 05:29:39 10° S 05:33:57 77° E 05:38:18 10° NNE
FALCON 9 DEB 3.2 05:38:25 20° SW 05:40:24 62° SSE 05:43:28 10° ENE
Lacrosse 4 Rocket 2.1 05:40:48 24° W 05:42:34 34° NW 05:46:37 10° NNE
Meteor 1-11 4.3 05:39:38 10° NNW 05:45:01 50° W 05:50:22 10° SSW
Cosmos 1300 2.7 05:42:08 10° SSW 05:45:53 57° WNW 05:49:40 10° N
Cosmos 2333 Rocket 4.1 05:46:36 12° NW 05:47:26 12° NNW 05:49:33 10° N
SAR-Lupe-4 4.2 05:44:51 10° SSW 05:48:07 33° W 05:50:19 17° NW
deb Chang Zheng 4 4.1 05:46:32 10° N 05:50:21 33° WNW 05:54:08 10° SW
Cosmos 1315 Rocket 2.7 05:46:35 10° SSW 05:50:27 62° WNW 05:54:22 10° N
[s.n.47389] 4.4 05:49:10 10° SSW 05:51:27 28° SE 05:53:45 10° E
[s.n.47399] 4.4 05:49:12 10° SSW 05:51:29 28° SE 05:53:48 10° E
Cosmos 2142 Rocket 4.5 05:45:11 10° SSW 05:51:29 79° W 05:57:46 10° N
[s.n.47393] 4.4 05:49:14 10° SSW 05:51:31 28° SE 05:53:50 10° E
[s.n.47353] 4.4 05:49:18 10° SSW 05:51:36 28° SE 05:53:54 10° E
[s.n.47355] 4.4 05:49:21 10° SSW 05:51:39 29° SE 05:53:58 10° E
[s.n.47365] 4.4 05:49:24 10° SSW 05:51:42 29° SE 05:54:01 10° E
[s.n.47383] 4.4 05:49:29 10° SSW 05:51:47 29° SE 05:54:06 10° E
[s.n.47400] 4.4 05:49:28 10° SSW 05:51:49 29° SE 05:54:10 10° ENE
[s.n.47378] 4.4 05:49:35 10° SSW 05:51:53 29° SE 05:54:12 10° E
[s.n.47395] 4.4 05:49:38 10° SSW 05:51:55 29° SE 05:54:14 10° E
[s.n.47379] 4.4 05:49:43 10° SSW 05:52:02 29° SE 05:54:21 10° E
[s.n.47370] 4.4 05:49:44 10° SSW 05:52:02 29° SE 05:54:21 10° E
[s.n.47351] 4.4 05:49:45 10° SSW 05:52:05 29° SE 05:54:27 10° ENE
[s.n.47394] 4.4 05:49:50 10° SSW 05:52:08 29° SE 05:54:28 10° E
[s.n.47354] 4.4 05:49:54 10° SSW 05:52:12 29° SE 05:54:31 10° E
[s.n.47360] 4.4 05:49:56 10° SSW 05:52:14 29° SE 05:54:33 10° E
[s.n.47369] 4.3 05:50:01 10° SSW 05:52:19 29° SE 05:54:38 10° E
[s.n.47406] 4.3 05:50:03 10° SSW 05:52:21 29° SE 05:54:41 10° ENE
[s.n.47384] 4.3 05:50:06 10° SSW 05:52:24 29° SE 05:54:44 10° ENE
[s.n.47356] 4.3 05:50:09 10° SSW 05:52:28 29° SE 05:54:47 10° ENE
[s.n.47407] 4.3 05:50:12 10° SSW 05:52:31 29° SE 05:54:51 10° ENE
[s.n.47385] 4.3 05:50:12 10° SSW 05:52:33 30° SE 05:54:56 10° ENE
[s.n.47358] 4.3 05:50:20 10° SSW 05:52:39 29° SE 05:54:58 10° ENE
[s.n.47398] 4.3 05:50:22 10° SSW 05:52:40 29° SE 05:55:00 10° ENE
[s.n.47361] 4.3 05:50:26 10° SSW 05:52:44 29° SE 05:55:04 10° ENE
[s.n.47392] 4.3 05:50:27 10° SSW 05:52:47 29° SE 05:55:06 10° ENE
[s.n.47382] 4.3 05:50:31 10° SSW 05:52:50 29° SE 05:55:10 10° ENE
[s.n.47359] 4.3 05:50:32 10° SSW 05:52:53 30° SE 05:55:15 10° ENE
[s.n.47401] 4.3 05:50:39 10° SSW 05:52:58 29° SE 05:55:18 10° ENE
[s.n.47380] 4.3 05:50:37 10° SSW 05:52:59 30° SE 05:55:22 10° ENE
Cosmos 1655 Rocket 4.3 05:46:45 10° N 05:53:01 71° E 05:59:19 10° SSE
[s.n.47386] 4.3 05:50:46 10° SSW 05:53:05 29° SE 05:55:25 10° ENE
[s.n.47408] 4.3 05:50:45 10° SSW 05:53:07 30° SE 05:55:30 10° ENE
[s.n.47396] 4.3 05:50:52 10° SSW 05:53:10 29° SE 05:55:30 10° ENE
[s.n.47391] 4.3 05:50:53 10° SSW 05:53:12 30° SE 05:55:33 10° ENE
[s.n.47402] 4.3 05:50:57 10° SSW 05:53:16 29° SE 05:55:36 10° ENE
[s.n.47404] 4.3 05:51:00 10° SSW 05:53:20 30° SE 05:55:40 10° ENE
[s.n.47403] 4.3 05:51:03 10° SSW 05:53:22 30° SE 05:55:43 10° ENE
[s.n.47381] 4.3 05:51:06 10° SSW 05:53:25 30° SE 05:55:46 10° ENE
[s.n.47372] 4.3 05:51:10 10° SSW 05:53:30 30° SE 05:55:50 10° ENE
[s.n.47405] 4.3 05:51:12 10° SSW 05:53:32 30° SE 05:55:52 10° ENE
Meteor 1-31 Rocket 4.5 05:51:01 10° NNW 05:52:39 16° NW 05:52:39 16° NW
[s.n.47368] 4.3 05:51:18 10° SSW 05:53:38 30° SE 05:55:58 10° ENE
[s.n.47350] 4.3 05:51:20 10° SSW 05:53:39 30° SE 05:56:00 10° ENE
[s.n.47349] 4.3 05:51:19 10° SSW 05:53:41 30° SE 05:56:05 10° ENE
[s.n.47367] 4.3 05:51:24 10° SSW 05:53:44 30° SE 05:56:06 10° ENE
[s.n.47373] 4.3 05:51:25 10° SSW 05:53:47 30° SE 05:56:11 10° ENE
[s.n.47377] 4.3 05:51:29 10° SSW 05:53:51 30° SE 05:56:15 10° ENE
[s.n.47371] 4.3 05:51:31 10° SSW 05:53:54 30° SE 05:56:17 10° ENE
[s.n.47362] 4.3 05:51:34 10° SSW 05:53:57 30° SE 05:56:20 10° ENE
[s.n.47363] 4.3 05:51:38 10° SSW 05:54:00 31° SE 05:56:24 10° ENE
[s.n.47374] 4.3 05:51:43 10° SSW 05:54:04 30° SE 05:56:26 10° ENE
[s.n.47357] 4.3 05:51:47 10° SSW 05:54:08 30° SE 05:56:29 10° ENE
[s.n.47390] 4.3 05:51:51 10° SSW 05:54:12 30° SE 05:56:32 10° ENE
[s.n.47387] 4.3 05:51:54 10° SSW 05:54:14 30° SE 05:56:35 10° ENE
[s.n.47375] 4.3 05:51:54 10° SSW 05:54:14 30° SE 05:56:36 10° ENE
[s.n.47376] 4.3 05:51:54 10° SSW 05:54:16 31° SE 05:56:41 10° ENE
[s.n.47366] 4.3 05:52:03 10° SSW 05:54:24 30° SE 05:56:47 10° ENE
[s.n.47352] 4.3 05:52:06 10° SSW 05:54:27 31° SE 05:56:50 10° ENE
[s.n.47364] 4.3 05:52:10 10° SSW 05:54:31 31° SE 05:56:55 10° ENE
[s.n.47388] 4.3 05:52:13 10° SSW 05:54:35 31° SE 05:56:58 10° ENE
[s.n.47397] 4.3 05:52:19 10° SSW 05:54:40 30° SE 05:57:02 10° ENE
Cosmos 2297 4.3 05:50:12 13° NW 05:54:46 36° WSW 05:59:56 10° S
MOS 1 Rocket 4.2 05:53:29 10° SSW 05:57:32 27° W 06:01:26 10° NW
Cosmos 1346 Rocket 3.5 05:54:30 10° NNW 05:58:03 31° W 06:01:35 10° SSW
USA 238 DEB 3.7 05:54:23 10° SW 06:00:56 63° NW 06:07:51 10° NE
USA 238 3.7 05:54:29 10° SW 06:01:02 63° NW 06:07:57 10° NE
Cosmos 1758 Rocket 4.3 05:58:56 10° NNW 06:02:54 31° W 06:06:47 10° SSW
FALCON 9 DEB 4.2 06:01:26 17° NW 06:03:31 31° N 06:06:37 10° ENE
NOAA 12 4.3 05:58:53 10° NNE 06:04:13 78° ESE 06:09:32 10° S
Cosmos 1689 Rocket 3.6 06:04:53 10° SW 06:06:54 17° W 06:07:23 16° W
Cosmos 1441 Rocket 3.6 06:05:45 10° N 06:09:42 71° ENE 06:13:35 10° SSE
ATLAS CENTAUR R/B 2.5 06:07:56 15° WNW 06:09:48 21° NW 06:12:40 10° NNE
SL-19 R/B 3.9 06:10:41 10° NNE 06:14:25 72° WNW 06:17:40 10° SSW
BREEZE M DEB (TANK) 2.3 06:12:07 10° WSW 06:14:28 70° SSE 06:19:52 10° ENE
MOS 1-B 4.3 06:11:35 10° NNE 06:17:22 77° WNW 06:23:08 10° SSW
YAOGAN 6 3.5 06:14:59 10° N 06:18:14 29° WNW 06:21:25 10° SW
Cosmos 1726 Rocket 3.7 06:14:07 10° SSW 06:18:16 47° WNW 06:22:28 10° N
Cosmos 1892 2.7 06:14:47 10° NNW 06:18:35 60° W 06:22:22 10° S
Spot 2 3.9 06:15:05 10° N 06:19:03 58° WNW 06:23:06 10° SSW
Cosmos 1184 Rocket 3.5 06:15:53 10° N 06:19:06 57° ENE 06:22:19 10° SSE
Cosmos 2058 Rocket 3.0 06:15:50 10° SSW 06:20:13 73° W 06:24:42 10° N
Cosmos 1603 3.9 06:15:50 10° SSW 06:21:26 81° ESE 06:27:07 10° NNE
GEOS 3 Rocket 4.3 06:17:00 10° S 06:22:01 40° WSW 06:27:06 10° NW
FALCON 9 DEB 2.9 06:19:35 10° WSW 06:22:39 62° NNW 06:25:45 10° ENE
USA 215 4.0 06:18:01 10° ENE 06:23:59 40° N 06:29:59 10° WNW
USA 307 3.4 06:21:01 10° W 06:25:05 43° NNW 06:29:08 10° ENE
CZ-4B DEB 4.4 06:22:56 10° N 06:28:22 53° WNW 06:33:44 10° SW
In-Cosmos 22 Rocket 4.3 06:23:43 10° NNW 06:28:57 49° W 06:34:04 10° SSW
Cosmos 2279 Rocket 4.2 06:24:24 10° SSW 06:30:24 47° WNW 06:36:28 10° N
Cosmos 2292 Rocket 3.7 06:28:00 10° NNW 06:30:43 30° W 06:33:46 10° SSW
USA 305 3.5 06:27:22 10° W 06:31:24 41° NNW 06:35:26 10° ENE
FALCON 9 DEB 3.0 06:28:19 10° WSW 06:31:26 61° NNW 06:34:33 10° ENE
CZ-2D R/B 4.4 06:27:44 10° NNE 06:31:27 49° E 06:35:08 10° S
Cosmos 1408 2.6 06:28:47 10° NNW 06:32:19 55° W 06:35:51 10° S
USA 308 3.5 06:30:03 10° W 06:34:08 41° NNW 06:38:12 10° ENE
Okean O Rocket 1.5 06:30:04 10° N 06:34:26 72° WNW 06:38:45 10° SSW
SL-4 R/B 2.4 06:31:31 10° W 06:35:18 48° N 06:39:24 10° ENE
SMAP 3.2 06:31:57 10° N 06:36:29 52° WNW 06:40:59 10° SW
